Volver al catálogo

ONEWEB-0697

ActivoComunicacionesPO
NORAD 61603·PAYLOAD·🇬🇧 United Kingdom

Lanzado Oct 20, 2024 desde Vandenberg Space Force Base

Loading…

Próximos Pases (próximas 24 horas)

TLE

ActualizadoSource: CelesTrak SupGP

Época: Sep 14, 2026, 14:14 UTC

1 61603C 24188K   26257.59323333  .00000307  00000+0  86860-3 0  2579
2 61603  87.8979   3.2910 0001162  84.3203  33.8877 13.11419511    15

Sigue ONEWEB-0697 en tiempo real con AllMySat

Download on the App Store